Location: Blaison
(47.4000°N, 0.3667°W)
Time: 21:23:54
(UTC+01:00)

ISS - Visible Passes

Search period start: 09 February 2026 00:00
Search period end: 19 February 2026 00:00
Orbit: 414 x 429 km, 51.6° (Epoch: 9 February)

Date Brightness Start Highest point End Pass type
(mag) Time Alt. Az. Time Alt. Az. Time Alt. Az.
11 Feb -0.6 07:06:20 10° SSE 07:07:56 13° SE 07:09:30 10° ESE visible
13 Feb -1.9 07:07:21 10° SSW 07:10:20 30° SE 07:13:20 10° E visible
14 Feb -1.4 06:21:00 11° S 06:23:26 20° SE 06:26:00 10° E visible
15 Feb -0.9 05:36:22 13° SE 05:36:34 13° SE 05:38:16 10° ESE visible
15 Feb -3.6 07:09:34 10° SW 07:12:53 72° SSE 07:16:13 10° ENE visible
16 Feb -3.0 06:24:33 29° SSW 06:25:51 48° SSE 06:29:05 10° ENE visible
17 Feb -1.9 05:39:35 28° ESE 05:39:35 28° ESE 05:41:52 10° E visible
17 Feb -3.6 07:12:35 12° W 07:15:33 60° NNW 07:18:52 10° ENE visible
18 Feb -3.9 06:27:29 45° WSW 06:28:23 79° NNW 06:31:45 10° ENE visible
